Time,TemperatureF,DewpointF,PressureIn,WindDirection,WindDirectionDegrees,WindSpeedMPH,WindSpeedGustMPH,Humidity,HourlyPrecipIn,Conditions,Clouds,dailyrainin,SoftwareType,DateUTC
2013-09-01 00:03:00,-999.0,-99.9,29.80,ENE,68,0.0,-999.0,-999,-99.99,,,-99.99,,2013-09-01 04:03:00,
2013-09-01 00:14:00,68.0,64.0,29.80,ENE,68,0.0,-999.0,88,-99.99,,,-99.99,,2013-09-01 04:14:00,
2013-09-01 00:25:00,68.0,65.0,29.80,ENE,68,0.0,-999.0,89,-99.99,,,-99.99,,2013-09-01 04:25:00,
2013-09-01 00:54:00,66.0,63.0,29.80,ENE,68,0.0,-999.0,91,-99.99,,,-99.99,,2013-09-01 04:54:00,
2013-09-01 01:13:00,66.0,64.0,29.80,SSE,163,1.0,-999.0,92,-99.99,,,-99.99,,2013-09-01 05:13:00,
2013-09-01 01:23:00,65.0,63.0,29.80,SSE,167,2.0,-999.0,92,-99.99,,,-99.99,,2013-09-01 05:23:00,
2013-09-01 01:52:00,64.0,62.0,29.80,SSE,167,0.0,-999.0,93,-99.99,,,-99.99,,2013-09-01 05:52:00,
2013-09-01 02:13:00,63.0,61.0,29.80,South,171,0.0,-999.0,94,-99.99,,,-99.99,,2013-09-01 06:13:00,
2013-09-01 02:22:00,63.0,61.0,29.80,South,182,0.0,-999.0,94,-99.99,,,-99.99,,2013-09-01 06:22:00,
2013-09-01 02:42:00,63.0,62.0,29.80,South,182,0.0,-999.0,95,-99.99,,,-99.99,,2013-09-01 06:42:00,
2013-09-01 02:52:00,63.0,61.0,29.79,South,182,0.0,-999.0,94,-99.99,,,-99.99,,2013-09-01 06:52:00,
2013-09-01 03:13:00,62.0,60.0,29.79,South,182,0.0,-999.0,94,-99.99,,,-99.99,,2013-09-01 07:13:00,
2013-09-01 03:22:00,62.0,61.0,29.79,South,182,0.0,-999.0,95,-99.99,,,-99.99,,2013-09-01 07:22:00,
2013-09-01 03:52:00,62.0,61.0,29.78,South,182,0.0,-999.0,96,-99.99,,,-99.99,,2013-09-01 07:52:00,
2013-09-01 04:11:00,63.0,62.0,29.77,South,182,0.0,-999.0,96,-99.99,,,-99.99,,2013-09-01 08:11:00,
2013-09-01 04:22:00,63.0,62.0,29.76,South,182,0.0,-999.0,96,-99.99,,,-99.99,,2013-09-01 08:22:00,
2013-09-01 04:52:00,62.0,61.0,29.77,South,182,0.0,-999.0,96,-99.99,,,-99.99,,2013-09-01 08:52:00,
2013-09-01 05:22:00,63.0,62.0,29.76,South,182,0.0,-999.0,97,-99.99,,,-99.99,,2013-09-01 09:22:00,
2013-09-01 05:53:00,63.0,62.0,29.76,South,182,1.0,-999.0,97,-99.99,,,-99.99,,2013-09-01 09:53:00,
2013-09-01 06:13:00,63.0,62.0,29.75,South,182,0.0,-999.0,97,-99.99,,,-99.99,,2013-09-01 10:13:00,
2013-09-01 06:23:00,63.0,62.0,29.76,South,182,0.0,-999.0,97,-99.99,,,-99.99,,2013-09-01 10:23:00,
2013-09-01 06:53:00,63.0,62.0,29.76,South,182,0.0,-999.0,97,-99.99,,,-99.99,,2013-09-01 10:53:00,
2013-09-01 07:12:00,63.0,62.0,29.76,South,182,0.0,-999.0,97,-99.99,,,-99.99,,2013-09-01 11:12:00,
2013-09-01 07:22:00,63.0,62.0,29.77,South,182,0.0,-999.0,97,-99.99,,,-99.99,,2013-09-01 11:22:00,
2013-09-01 07:52:00,63.0,62.0,29.77,South,182,0.0,-999.0,97,-99.99,,,-99.99,,2013-09-01 11:52:00,
2013-09-01 08:12:00,63.0,62.0,29.76,South,182,0.0,-999.0,97,-99.99,,,-99.99,,2013-09-01 12:12:00,
2013-09-01 08:22:00,63.0,62.0,29.75,South,182,0.0,-999.0,97,-99.99,,,-99.99,,2013-09-01 12:22:00,
2013-09-01 08:52:00,64.0,63.0,29.75,ENE,67,1.0,-999.0,96,-99.99,,,-99.99,,2013-09-01 12:52:00,
2013-09-01 09:11:00,65.0,63.0,29.75,NE,36,1.0,-999.0,93,-99.99,,,-99.99,,2013-09-01 13:11:00,
2013-09-01 09:21:00,66.0,63.0,29.74,ENE,67,2.0,-999.0,91,-99.99,,,-99.99,,2013-09-01 13:21:00,
2013-09-01 09:52:00,67.0,63.0,29.74,ENE,59,2.0,-999.0,86,-99.99,,,-99.99,,2013-09-01 13:52:00,
2013-09-01 10:11:00,68.0,64.0,29.74,NNE,31,2.0,-999.0,87,-99.99,,,-99.99,,2013-09-01 14:11:00,
2013-09-01 10:22:00,68.0,64.0,29.75,ENE,71,1.0,-999.0,87,-99.99,,,-99.99,,2013-09-01 14:22:00,
2013-09-01 10:52:00,68.0,64.0,29.75,SE,132,1.0,-999.0,86,-99.99,,,-99.99,,2013-09-01 14:52:00,
2013-09-01 11:11:00,68.0,64.0,29.76,East,83,2.0,-999.0,87,-99.99,,,-99.99,,2013-09-01 15:11:00,
2013-09-01 11:23:00,69.0,64.0,29.75,ESE,117,2.0,-999.0,84,-99.99,,,-99.99,,2013-09-01 15:23:00,
2013-09-01 11:45:00,70.0,65.0,29.75,NNE,29,2.0,-999.0,83,-99.99,,,-99.99,,2013-09-01 15:45:00,
2013-09-01 11:55:00,70.0,64.0,29.75,NE,51,1.0,-999.0,82,-99.99,,,-99.99,,2013-09-01 15:55:00,
2013-09-01 12:14:00,70.0,65.0,29.75,ENE,78,3.0,-999.0,84,-99.99,,,-99.99,,2013-09-01 16:14:00,
2013-09-01 12:24:00,70.0,65.0,29.75,NE,55,2.0,-999.0,83,-99.99,,,-99.99,,2013-09-01 16:24:00,
2013-09-01 12:53:00,70.0,64.0,29.75,ENE,62,4.0,-999.0,82,-99.99,,,-99.99,,2013-09-01 16:53:00,
2013-09-01 13:12:00,71.0,65.0,29.74,ENE,60,2.0,-999.0,80,-99.99,,,-99.99,,2013-09-01 17:12:00,
2013-09-01 13:23:00,70.0,65.0,29.73,NE,51,4.0,-999.0,83,-99.99,,,-99.99,,2013-09-01 17:23:00,
2013-09-01 13:52:00,72.0,65.0,29.73,ENE,77,3.0,-999.0,79,-99.99,,,-99.99,,2013-09-01 17:52:00,
2013-09-01 14:13:00,72.0,65.0,29.72,East,83,4.0,-999.0,80,-99.99,,,-99.99,,2013-09-01 18:13:00,
2013-09-01 14:22:00,72.0,65.0,29.72,NE,50,3.0,-999.0,80,-99.99,,,-99.99,,2013-09-01 18:22:00,
2013-09-01 14:42:00,72.0,65.0,29.72,NNE,22,4.0,-999.0,80,-99.99,,,-99.99,,2013-09-01 18:42:00,
2013-09-01 14:52:00,73.0,66.0,29.72,ENE,63,2.0,-999.0,79,-99.99,,,-99.99,,2013-09-01 18:52:00,
2013-09-01 15:12:00,74.0,66.0,29.72,ENE,73,1.0,-999.0,77,-99.99,,,-99.99,,2013-09-01 19:12:00,
2013-09-01 15:22:00,73.0,66.0,29.71,NE,54,4.0,-999.0,80,-99.99,,,-99.99,,2013-09-01 19:22:00,
2013-09-01 15:52:00,73.0,67.0,29.70,NE,46,3.0,-999.0,81,-99.99,,,-99.99,,2013-09-01 19:52:00,
2013-09-01 16:12:00,73.0,67.0,29.70,East,101,2.0,-999.0,81,-99.99,,,-99.99,,2013-09-01 20:12:00,
2013-09-01 16:22:00,74.0,67.0,29.70,SE,129,0.0,-999.0,80,-99.99,,,-99.99,,2013-09-01 20:22:00,
2013-09-01 16:42:00,75.0,68.0,29.70,NE,55,0.0,-999.0,79,-99.99,,,-99.99,,2013-09-01 20:42:00,
2013-09-01 16:52:00,75.0,68.0,29.70,ENE,62,2.0,-999.0,78,-99.99,,,-99.99,,2013-09-01 20:52:00,
2013-09-01 17:22:00,76.0,67.0,29.68,SSE,162,5.0,-999.0,73,-99.99,,,-99.99,,2013-09-01 21:22:00,
2013-09-01 17:55:00,75.0,68.0,29.67,SSW,196,6.0,-999.0,78,-99.99,,,-99.99,,2013-09-01 21:55:00,
2013-09-01 18:15:00,75.0,68.0,29.66,SSE,153,5.0,-999.0,78,-99.99,,,-99.99,,2013-09-01 22:15:00,
2013-09-01 18:24:00,75.0,68.0,29.66,SE,146,5.0,-999.0,79,-99.99,,,-99.99,,2013-09-01 22:24:00,
2013-09-01 18:53:00,75.0,68.0,29.66,South,189,4.0,-999.0,79,-99.99,,,-99.99,,2013-09-01 22:53:00,
2013-09-01 19:12:00,75.0,68.0,29.66,SSE,159,4.0,-999.0,78,-99.99,,,-99.99,,2013-09-01 23:12:00,
2013-09-01 19:23:00,75.0,68.0,29.66,SSW,192,5.0,-999.0,78,-99.99,,,-99.99,,2013-09-01 23:23:00,
2013-09-01 19:53:00,74.0,68.0,29.67,SSW,203,2.0,-999.0,81,-99.99,,,-99.99,,2013-09-01 23:53:00,
2013-09-01 20:11:00,73.0,68.0,29.67,SW,219,1.0,-999.0,83,-99.99,,,-99.99,,2013-09-02 00:11:00,
2013-09-01 20:22:00,73.0,68.0,29.67,South,172,2.0,-999.0,84,-99.99,,,-99.99,,2013-09-02 00:22:00,
2013-09-01 20:42:00,72.0,67.0,29.66,South,180,2.0,-999.0,85,-99.99,,,-99.99,,2013-09-02 00:42:00,
2013-09-01 20:52:00,71.0,67.0,29.67,South,184,1.0,-999.0,87,-99.99,,,-99.99,,2013-09-02 00:52:00,
2013-09-01 21:12:00,71.0,67.0,29.66,South,184,1.0,-999.0,87,-99.99,,,-99.99,,2013-09-02 01:12:00,
2013-09-01 21:22:00,70.0,66.0,29.65,South,184,1.0,-999.0,88,-99.99,,,-99.99,,2013-09-02 01:22:00,
2013-09-01 21:42:00,70.0,67.0,29.66,South,184,0.0,-999.0,89,-99.99,,,-99.99,,2013-09-02 01:42:00,
2013-09-01 21:52:00,70.0,67.0,29.66,South,184,0.0,-999.0,90,-99.99,,,-99.99,,2013-09-02 01:52:00,
2013-09-01 22:12:00,69.0,66.0,29.67,South,184,0.0,-999.0,91,-99.99,,,-99.99,,2013-09-02 02:12:00,
2013-09-01 22:42:00,68.0,66.0,29.66,South,184,0.0,-999.0,93,-99.99,,,-99.99,,2013-09-02 02:42:00,
2013-09-01 22:52:00,68.0,66.0,29.67,South,184,1.0,-999.0,94,-99.99,,,-99.99,,2013-09-02 02:52:00,
2013-09-01 23:11:00,69.0,67.0,29.65,SSW,202,3.0,-999.0,93,-99.99,,,-99.99,,2013-09-02 03:11:00,
2013-09-01 23:22:00,69.0,67.0,29.65,SW,216,3.0,-999.0,93,-99.99,,,-99.99,,2013-09-02 03:22:00,
2013-09-01 23:56:00,69.0,67.0,29.66,SSW,203,3.0,-999.0,94,-99.99,,,-99.99,,2013-09-02 03:56:00,